Location: Hylvaty SDH
(49.9612°N, 16.4057°E)
Time: 19:32:26
(UTC+02:00)

Transit 4A - Pass Details

Date: 11 August 2020
Orbit: 862 x 982 km, 66.8° (Epoch: 28 September)

Event Time Altitude Azimuth Distance (km) Brightness Sun altitude
Rises 18:20:15 0° 322° (NW) 3,646 11.6 17.7°
Reaches altitude 10° 18:22:47 10° 322° (NW) 2,710 11.0 17.3°
Maximum altitude 18:29:09 84° 236° (SW) 989 8.5 16.3°
Drops below altitude 10° 18:35:35 10° 149° (SSE) 2,729 10.1 15.2°
Sets 18:38:08 0° 149° (SSE) 3,673 10.7 14.8°
